COSMOS 1275 DEB, 14504

Orbit data source: Space-Track

COSMOS 1275 DEB, 14504 is space debris in LEO originally from a launch on Thu, 04 Jun 1981 UTC launched from the Plesetsk Missile And Space Complex (PKMTR). Debris objects in space refer to the collection of defunct objects orbiting the Earth. Examples of debris include non-operational satellites, rocket bodies, and fragments generated from explosions, collisions, or faulty payload assembly.

Loading next visibility...
Identifier
14504, 1981-053JJ
Orbit
LEO
Country
Flag of CISCIS
Related business
Manufacturer
Unknown
Mission
Spacecraft
Bus & Motor
Unknown
Mass
Unknown
Launch date (UTC)
1981-06-04 (45 years ago)
Launch vehicle
Unknown
Launch site
Plesetsk Missile And Space Complex (PKMTR)
Object type
Payload
Rocket body
Debris
Shape & HBR
Unknown shape, 0.1 m
Radar Cross Section
Medium (>0.1 m² and <1 m²)

Expand to show TLE details & history
Last TLE update: 13 hours ago

TLE from 13 hours ago
0 COSMOS 1275 DEB
1 14504U 81053JJ  26150.00279654  .00001174  00000-0  68101-3 0  9990
2 14504  83.1909 348.1195 0023481 106.9540  50.1799 14.07838958279923
Epoch: 2026-05-30T00:04Z
TLE epoch observation values (Epoch: 2026-05-30T00:04:01.621Z)
Latitude
22.50639°
Longitude
-83.23318°
Altitude
858.679 km
Speed
7.431 km/s
True Right ascension
11h 01m 11s
True Declination
22° 23' 12"
Sunlit
Object was in daylight at epoch
Visualization orbit readout
Latitude
Unknown
Longitude
Unknown
Altitude
Unknown
Speed
Unknown
Apparent Right ascension
Unknown
Apparent Declination
Unknown
Sunlit
N/A
Visualization observer readout
Local Sidereal Time
22:19:58
Azimuth
Unknown
Elevation
Unknown
Doppler factor
Unknown
Orbital elements
Apogee altitude
880.875 km
Perigee altitude
846.865 km
Semi-major axis
7,242.007 km
Eccentricity
0.00235
Inclination
83.1909°
RAAN
348.1195°
Arg. of periapsis
106.954°
True anomaly
50.38695°
Mean anomaly
50.1799°
Eccentric anomaly
50.28339°
Mean motion
3.52172 °/min
Orbital period
102.22 mins
BSTAR
0.00068101
Loading maneuver chart data...
Computing Atmospheric mass density...

Documentation

Showing up to 5 results
|